Theta_e
316 317 318 319 318 315 314 314 314 315 314 314 313 313 313 313 313 313 312 311 312 311 310 310 310 310 309 310 309 308 308 308 306 306 305 304 305 304 304 304 305 303 304 303 305 303 304 303 302 302 302 301 302 300 300 300 301 302 302 301 301 300 300 298 297 298 298 299 300 301 303 303 303 302 302 302 302 303 306 303 304 303 304 305 306
317 317 318 318 317 316 315 315 315 315 313 314 313 313 312 314 314 313 311 311 313 312 311 311 311 310 309 309 309 309 308 309 307 306 307 304 305 305 305 305 303 303 302 302 302 304 302 302 303 302 303 301 300 300 300 300 300 298 299 302 300 300 300 301 297 297 296 299 300 301 301 303 299 301 300 300 301 303 303 303 304 303 304 304 304
317 317 316 316 316 316 316 316 316 315 313 313 313 313 312 314 315 313 311 311 312 312 311 311 311 311 310 310 309 309 308 309 308 306 307 305 305 306 305 304 304 303 302 301 302 303 301 301 301 301 303 299 300 301 301 301 301 299 299 300 299 299 299 300 297 296 296 296 298 298 298 299 298 300 300 301 301 302 301 302 302 303 304 303 303
316 316 316 316 316 315 315 316 316 315 313 313 314 313 313 315 315 314 312 311 312 311 311 311 311 311 310 309 309 309 309 309 308 307 307 307 305 306 305 303 303 304 304 302 302 302 301 299 300 301 302 299 300 300 300 300 300 300 299 299 297 298 298 297 297 296 295 294 294 297 298 297 297 299 300 300 300 300 301 301 302 302 303 304 304
314 314 314 314 315 315 313 313 314 313 312 312 312 312 313 315 315 313 312 312 312 312 312 311 311 311 312 311 310 310 309 309 308 308 307 307 306 306 306 304 303 304 304 303 305 302 302 301 300 302 301 299 300 300 299 299 300 298 296 296 296 297 297 296 295 295 293 292 293 295 296 295 297 297 298 297 298 299 300 299 299 300 301 302 303
311 310 311 311 313 314 314 313 313 314 315 315 315 315 314 314 312 312 313 312 312 312 312 312 312 311 311 311 312 312 312 311 311 310 309 308 307 306 306 305 304 304 304 303 304 303 302 302 301 303 301 300 299 299 299 298 297 295 294 294 294 295 294 294 294 293 292 291 291 291 292 293 293 293 296 297 296 297 297 298 298 299 299 299 301
311 310 310 310 310 311 312 312 313 314 316 316 316 316 315 314 314 311 313 312 311 310 310 311 311 312 312 312 313 313 313 313 313 312 311 310 309 308 306 305 304 304 304 304 303 303 302 302 302 302 302 300 300 299 298 296 296 295 296 294 294 293 293 293 292 291 290 289 290 290 290 292 292 292 295 296 296 296 295 295 295 297 298 298 298
311 311 311 310 310 311 312 313 313 314 315 315 315 315 315 314 313 313 313 311 312 313 312 312 312 311 311 311 311 311 311 312 313 313 313 313 311 310 309 307 305 304 304 304 303 303 303 303 303 302 302 301 300 299 296 294 294 293 294 294 293 292 291 292 290 289 289 289 288 288 289 290 291 292 294 293 293 294 296 294 293 294 296 297 297
310 308 309 310 310 311 311 313 313 314 315 316 314 313 314 315 315 314 313 312 312 311 313 314 313 313 312 311 309 309 310 311 312 312 312 312 312 311 310 308 307 305 304 304 303 302 302 302 301 301 304 305 302 300 298 297 293 291 292 293 293 291 290 290 290 289 289 289 289 290 289 289 289 290 291 291 290 291 294 294 293 294 295 294 295
307 306 307 307 307 310 312 313 314 313 313 313 315 315 314 314 314 314 315 315 314 314 313 314 313 313 311 310 308 309 310 310 310 307 308 311 310 311 310 309 308 306 306 305 303 302 302 301 304 307 306 303 299 296 295 296 298 295 292 291 293 290 290 289 289 289 290 288 288 288 288 288 289 289 290 290 292 293 292 292 292 293 293 293 294
304 305 305 306 307 308 309 309 309 311 310 311 312 312 312 311 311 311 312 313 313 313 313 311 311 311 310 308 307 308 309 312 306 302 300 301 309 309 308 308 308 307 306 305 303 302 301 301 302 305 303 301 297 294 293 294 294 294 295 296 295 291 289 289 288 288 290 289 289 288 287 288 289 290 289 291 292 292 291 292 292 291 290 289 289
301 302 304 305 307 308 307 308 307 307 306 306 307 309 310 309 308 308 309 310 312 311 311 311 310 309 308 307 306 306 306 307 300 299 298 297 299 307 309 308 308 307 306 305 303 301 301 300 300 301 297 295 293 293 294 293 293 293 293 293 293 294 294 292 291 289 288 287 287 288 287 288 289 289 290 291 291 292 292 291 291 290 289 289 288
297 299 300 304 304 301 302 303 303 302 303 303 302 301 302 303 303 304 306 308 306 307 308 306 306 306 307 307 305 306 306 293 293 296 297 297 297 299 307 308 307 306 306 305 303 301 300 300 299 300 299 302 300 292 293 292 293 292 292 292 292 291 290 290 292 293 289 288 288 287 288 288 288 289 291 291 292 290 291 291 291 290 290 289 289
295 296 298 298 298 299 301 301 300 300 300 300 300 299 299 300 302 302 303 304 305 304 304 304 305 305 305 305 306 297 295 294 293 296 297 297 296 297 305 306 307 305 305 306 304 300 301 300 299 299 298 299 296 293 293 293 293 291 290 289 290 293 292 291 290 290 292 291 289 288 289 290 290 290 292 291 290 290 290 290 290 290 289 289 290
297 296 296 296 298 299 300 299 299 299 298 297 298 297 297 298 299 298 300 301 300 301 302 302 302 304 302 299 295 292 294 292 292 293 294 294 295 299 303 303 302 302 302 302 301 300 300 300 300 298 298 298 299 297 295 293 292 292 290 290 289 290 290 291 291 290 290 290 289 289 289 290 290 291 291 291 291 291 291 290 290 290 290 290 290
297 296 297 296 298 298 298 297 297 296 296 296 296 296 296 297 298 298 296 296 299 301 301 299 300 298 297 295 292 290 291 293 292 293 294 294 296 299 299 299 298 299 299 299 299 299 299 299 299 298 299 300 298 295 296 294 293 292 292 290 289 289 290 294 293 292 292 290 290 290 290 291 292 291 291 291 290 290 291 291 289 288 288 287 287
296 296 298 296 297 298 298 297 297 296 296 296 295 297 297 297 296 296 295 293 296 296 297 298 299 299 296 293 290 288 290 293 292 293 293 294 296 297 297 297 297 298 298 299 298 299 299 300 299 297 296 292 291 290 292 295 292 291 289 287 288 288 289 291 292 291 291 291 291 291 290 290 291 291 290 291 291 291 289 287 286 287 286 285 286
295 297 295 295 297 298 297 298 297 296 295 295 296 295 294 295 295 295 298 297 296 295 297 297 298 297 296 292 291 290 289 292 292 292 293 294 295 296 295 295 294 295 295 296 298 299 298 303 301 295 293 292 289 290 290 291 289 288 287 286 286 286 287 287 289 290 291 291 290 290 290 290 290 291 291 291 291 292 287 285 286 285 285 285 284
296 296 296 296 296 297 297 297 297 296 296 295 295 294 295 296 295 295 295 294 296 295 296 295 295 294 293 293 296 291 289 291 292 292 293 294 295 294 294 293 292 292 293 295 294 293 292 294 296 294 292 291 289 289 289 290 288 287 286 286 287 285 285 285 285 286 286 287 287 288 288 290 290 289 290 291 291 292 290 288 287 286 285 285 285
297 297 297 296 295 296 296 298 296 296 297 295 295 296 295 295 296 295 292 294 294 293 294 294 293 292 292 292 292 289 290 289 291 292 293 293 294 295 294 292 291 290 291 293 292 290 291 291 291 289 289 289 288 288 289 290 288 287 287 287 287 286 284 285 287 286 285 285 285 285 286 286 287 287 287 287 289 292 290 289 288 287 286 286 286
299 298 298 296 295 295 295 296 296 297 295 295 295 296 296 296 294 296 294 293 294 294 293 292 293 291 291 290 288 287 289 289 289 291 292 292 292 292 291 291 290 291 291 291 291 290 289 289 290 290 289 289 288 288 289 289 290 289 287 285 285 286 288 285 285 290 285 285 286 286 286 286 286 286 286 286 287 288 289 289 289 288 287 287 286
297 298 297 297 296 295 295 296 297 299 296 295 296 297 296 295 295 294 293 293 294 293 291 291 291 290 289 289 288 287 291 292 288 290 291 292 291 291 291 290 292 293 292 291 289 288 288 287 288 289 289 289 288 288 288 288 289 292 287 287 287 288 286 287 285 285 285 285 283 284 284 284 284 285 286 287 288 290 289 288 288 288 288 288 288
298 298 297 297 297 297 296 295 295 298 296 295 296 296 294 296 296 293 293 293 293 292 291 290 290 289 288 287 286 286 286 289 291 289 291 291 291 290 290 290 291 292 291 291 289 289 289 290 291 290 288 288 288 288 288 288 289 288 288 287 287 287 288 285 284 284 283 283 284 284 284 284 285 285 286 287 287 288 288 288 288 289 289 290 290
295 296 297 297 297 297 297 296 295 294 293 293 293 293 292 293 295 295 293 294 292 291 289 290 289 289 287 286 287 286 286 286 289 290 289 290 290 289 289 289 290 292 291 289 290 291 290 290 291 289 288 288 288 288 288 288 287 287 287 287 287 288 286 284 284 284 284 283 282 283 283 284 285 285 286 288 288 289 289 289 289 289 290 290 291
296 295 295 295 295 296 295 294 294 293 292 293 292 292 291 292 293 293 294 293 292 291 289 290 290 289 287 288 286 285 286 285 285 287 289 289 288 288 288 288 288 288 289 289 289 291 290 290 289 289 288 288 288 288 288 288 287 287 288 288 290 285 284 283 283 284 282 282 283 284 284 285 286 287 288 288 289 289 288 289 290 290 290 291 292
296 295 294 293 295 295 296 294 294 293 294 293 294 292 293 292 292 291 293 292 292 292 291 289 289 289 288 286 286 286 286 285 284 285 290 289 288 288 288 289 290 290 289 288 288 288 288 289 289 288 289 288 287 286 286 286 288 288 288 289 285 284 284 283 282 283 282 282 283 284 284 284 285 286 286 287 286 286 287 287 287 286 288 288 288
294 294 293 292 292 292 293 292 292 292 292 291 291 291 291 291 293 293 294 293 291 290 289 288 288 288 288 287 286 286 286 285 284 284 284 285 285 286 287 288 289 288 287 286 288 288 288 288 287 287 287 287 287 287 287 287 285 284 281 282 283 283 283 283 283 283 283 284 284 284 285 285 286 285 285 285 285 286 287 287 286 286 287 287 287
291 291 293 293 292 292 292 290 292 293 291 288 290 291 291 292 294 294 294 293 291 290 289 289 289 290 288 287 286 285 284 284 284 285 285 285 286 286 286 286 284 283 284 285 286 288 286 287 286 285 285 285 285 283 283 282 283 284 282 283 282 283 286 287 287 283 283 284 284 284 284 285 285 285 286 285 285 285 286 286 286 285 285 285 284
289 290 290 291 291 291 293 293 292 291 287 285 283 283 284 288 293 294 292 295 296 294 292 291 291 290 290 288 287 285 285 286 287 287 287 288 286 286 285 284 285 285 287 287 285 285 284 284 283 283 282 280 280 282 280 280 281 282 282 283 283 283 283 282 284 284 284 284 284 284 284 285 285 286 286 285 285 285 285 284 285 285 285 285 285
290 290 289 290 291 290 291 291 291 289 288 286 286 286 286 287 286 288 290 292 293 293 293 292 292 290 288 286 287 287 286 286 287 288 288 288 288 287 287 287 287 287 287 287 286 282 281 280 279 279 279 279 279 279 279 279 281 280 281 283 281 282 282 282 283 283 283 283 284 284 285 285 285 286 286 286 286 286 286 286 285 284 284 285 285
291 291 290 291 290 291 289 289 290 289 289 288 288 287 286 287 287 288 288 289 291 291 291 290 290 290 290 287 286 288 288 287 287 288 287 287 287 287 287 287 287 287 286 284 284 282 282 280 278 278 278 279 279 279 278 279 280 280 280 280 282 282 283 283 284 283 283 283 284 285 285 285 285 285 285 285 286 286 286 286 285 285 285 285 285
290 290 291 291 291 290 288 289 289 289 288 288 289 288 286 286 285 287 287 287 289 289 289 289 290 289 289 288 286 284 286 287 287 287 287 287 287 286 286 286 286 286 285 286 283 281 278 278 278 279 278 279 280 279 280 280 280 281 282 283 284 284 284 284 285 284 283 283 284 284 285 285 285 285 285 285 285 285 285 286 286 285 286 286 285
292 291 291 291 290 290 289 290 290 289 289 287 287 287 288 287 285 282 285 287 287 287 288 289 289 288 288 288 288 287 286 287 287 287 287 287 287 287 286 287 286 285 286 284 279 277 276 275 277 278 278 278 279 280 281 281 282 282 283 284 285 285 285 285 284 283 283 283 284 285 285 285 285 285 285 285 285 285 285 285 286 286 285 285 285
291 291 291 291 291 290 289 290 290 290 290 289 288 287 287 287 285 285 284 283 285 286 287 287 288 288 288 287 287 287 287 287 287 287 287 287 287 286 286 286 287 286 285 279 277 277 277 278 279 280 280 280 280 280 281 281 282 282 283 283 283 283 283 283 282 283 284 284 284 285 285 285 285 284 284 285 285 285 285 285 285 285 284 285 284
291 289 288 289 291 292 290 290 291 290 289 289 287 287 286 285 285 285 285 284 283 283 282 284 286 287 286 286 287 287 287 287 287 287 287 287 286 285 286 285 282 279 280 281 280 279 279 279 279 280 280 279 280 279 281 281 281 282 282 282 282 282 282 283 283 284 284 285 285 285 285 285 285 285 284 284 284 284 284 284 284 285 284 284 284
290 290 290 290 290 290 288 289 291 290 289 288 288 286 285 285 284 284 284 284 283 283 282 282 283 286 287 287 287 287 287 287 287 287 286 286 286 285 283 280 280 279 279 278 279 281 280 280 280 280 281 280 281 280 281 282 282 284 285 284 284 283 283 283 284 284 285 285 284 285 285 285 285 285 285 284 284 284 284 284 284 285 285 284 285
290 289 289 290 290 290 289 290 290 290 287 287 286 285 284 284 284 284 284 283 283 283 283 284 285 285 286 286 286 286 287 287 286 286 286 285 285 283 282 281 281 279 280 279 279 279 279 279 280 281 281 281 281 282 281 284 285 285 285 285 284 283 283 283 284 284 284 284 284 284 284 284 285 285 284 284 284 284 284 284 284 284 284 284 284
291 291 290 289 290 291 290 290 289 287 287 286 286 285 285 285 284 284 284 283 284 284 283 284 285 285 285 285 288 286 286 286 286 286 285 284 283 281 281 279 280 280 278 279 278 278 279 279 281 281 281 281 281 283 284 285 285 285 284 284 283 283 284 284 284 284 284 284 284 285 285 284 285 285 284 284 284 284 284 284 284 284 284 284 284
294 290 289 288 289 291 290 288 287 287 286 286 285 285 285 285 284 284 284 284 284 284 285 285 286 286 286 286 285 286 287 285 284 284 282 281 280 280 280 280 280 278 278 278 279 279 279 279 280 280 281 281 282 283 283 283 284 284 284 284 283 283 283 283 284 284 284 284 284 285 285 285 285 285 285 284 284 284 284 284 284 284 284 284 284
294 293 290 288 289 289 289 288 287 287 286 286 286 286 285 285 284 284 284 285 285 285 285 285 285 286 285 285 285 286 285 285 283 282 281 281 280 280 280 280 280 280 278 277 278 278 278 278 279 279 280 280 280 281 282 282 282 283 283 283 283 283 284 284 284 284 284 284 284 285 284 284 285 285 285 284 284 284 284 284 284 284 284 284 284
294 293 289 288 289 289 289 288 288 287 287 286 286 286 285 285 285 285 285 285 285 285 285 285 285 285 286 286 286 286 285 284 284 284 284 282 281 281 279 278 277 277 277 278 278 278 278 279 278 277 277 277 278 280 281 282 282 282 282 283 283 284 284 284 284 284 284 284 284 284 285 285 285 284 284 285 285 285 285 285 285 285 285 285 285
292 291 290 289 289 289 288 287 287 286 286 286 286 286 286 286 286 286 286 286 285 285 285 285 285 286 286 286 286 286 285 284 285 284 283 283 282 280 279 278 277 278 278 277 277 278 278 278 277 276 277 279 279 280 281 282 282 282 282 283 283 284 284 284 284 284 284 284 284 284 284 285 285 285 285 285 285 285 285 285 285 285 285 285 285
291 291 290 290 290 289 288 288 288 288 287 287 287 286 287 288 287 286 286 286 286 286 285 285 285 285 286 285 285 285 284 284 284 283 283 282 282 280 278 276 276 277 279 279 279 278 278 277 277 276 277 280 280 281 282 282 282 282 282 283 283 283 283 283 283 284 284 284 284 284 284 285 285 285 285 285 285 285 285 285 285 285 285 285 285
290 290 290 289 289 289 289 289 288 288 288 287 287 287 287 287 287 287 286 286 286 286 286 285 285 284 284 284 285 284 284 283 283 283 283 282 280 278 276 275 277 277 277 277 276 276 278 277 277 278 278 279 281 281 281 282 282 282 282 282 283 283 283 283 283 283 283 283 284 284 285 285 285 285 285 285 285 285 285 285 285 285 285 285 286
290 289 289 289 289 288 288 288 287 287 287 287 287 287 287 288 287 287 286 286 285 285 285 284 284 284 284 284 284 284 284 284 283 283 281 280 280 276 275 275 275 276 277 277 277 278 277 276 278 278 280 280 281 282 282 283 283 282 282 282 282 282 282 282 283 283 283 283 284 284 285 285 285 285 285 285 285 285 285 285 285 285 285 285 286
290 290 289 289 289 289 288 289 288 288 288 287 287 287 287 288 287 286 286 285 285 285 284 284 284 284 284 284 284 284 283 283 282 282 280 279 279 276 276 275 275 276 276 276 278 279 278 277 278 278 279 280 281 282 282 282 283 282 281 281 282 282 283 283 283 283 283 283 284 285 285 285 285 285 285 285 285 285 285 285 285 285 285 285 285
291 290 289 289 289 288 288 288 288 288 287 287 287 287 287 287 286 286 285 285 285 284 284 284 284 284 284 284 284 283 283 283 281 280 280 279 278 277 276 276 276 275 276 277 277 279 279 280 279 278 279 280 281 282 282 282 281 280 280 280 281 282 282 283 283 283 283 284 285 285 285 285 285 285 285 285 285 285 285 285 285 285 285 285 285
290 290 290 290 290 289 288 288 287 287 287 286 286 286 286 286 286 285 285 285 285 284 284 284 284 283 284 283 283 283 282 282 281 280 280 279 277 276 276 276 276 275 276 278 278 279 279 278 278 279 280 281 281 281 281 280 280 279 279 279 280 281 281 281 282 282 283 284 285 285 285 285 285 285 285 285 285 285 285 285 285 285 285 285 285
290 289 289 289 289 289 288 288 287 287 286 286 286 286 285 285 285 285 284 284 283 283 283 283 282 282 282 282 282 282 282 281 280 280 279 278 277 277 277 277 279 277 277 277 277 277 278 278 279 279 280 280 280 279 279 279 279 279 279 279 279 280 280 280 281 282 283 284 285 285 285 285 285 285 285 285 285 285 285 285 285 285 285 285 285
287 287 288 287 287 287 287 287 286 285 285 285 285 284 284 284 284 283 283 283 282 282 282 282 281 281 281 281 281 281 281 280 280 279 278 277 278 278 278 278 277 278 277 276 277 278 277 277 278 280 280 280 278 278 278 278 278 278 278 278 278 279 279 280 280 281 282 283 284 285 285 285 285 285 285 285 285 285 285 285 285 285 285 285 285
286 285 285 285 285 285 285 284 284 283 283 283 283 283 283 282 282 282 282 281 281 281 281 281 281 280 280 280 280 280 280 280 279 279 278 277 278 279 281 280 279 279 278 277 277 277 277 278 278 279 279 279 277 278 278 278 278 278 278 278 278 278 279 279 280 281 281 282 284 285 285 285 285 285 285 285 285 285 285 285 285 285 285 285 285
Wind_Speed
11 11 9 10 11 11 12 11 12 11 11 13 13 11 9 9 9 10 7 8 8 9 9 10 9 9 8 8 7 6 6 5 5 5 5 4 4 5 4 4 5 4 4 3 2 3 3 3 2 1 0 3 1 1 2 3 3 3 2 3 4 3 3 1 3 7 4 1 2 4 6 5 6 5 8 9 9 8 7 5 5 5 6 6 6
11 10 8 9 11 10 10 10 12 11 12 11 12 12 10 10 10 7 10 9 9 10 10 8 8 8 8 8 7 6 6 6 5 5 6 5 4 3 5 4 4 4 3 4 3 3 3 3 2 2 1 1 1 2 3 4 4 4 4 3 4 4 3 2 2 1 6 6 6 4 4 4 6 5 7 10 11 10 11 9 7 5 5 7 7
8 8 8 9 10 10 10 9 10 11 12 11 11 11 11 10 10 11 11 9 7 9 9 8 8 9 8 8 7 6 6 6 6 6 6 6 6 5 5 5 5 5 4 4 4 3 3 3 3 3 1 1 0 0 2 3 1 2 3 3 4 3 3 1 2 3 5 6 3 6 5 6 5 7 8 7 8 9 10 10 9 8 8 8 8
2 4 6 6 7 8 9 8 9 9 10 8 10 10 9 10 10 11 10 8 8 5 5 6 6 6 7 6 6 6 6 5 5 6 7 7 7 7 6 5 5 6 7 6 5 5 5 4 3 3 3 3 2 1 3 3 3 3 3 3 3 3 3 3 3 1 1 5 4 5 5 6 5 6 7 7 8 8 7 8 9 9 9 9 9
9 9 6 1 4 5 4 3 4 8 11 11 9 3 4 10 9 9 8 8 7 6 4 4 6 6 7 7 6 5 6 5 5 5 5 6 6 7 6 6 6 6 6 7 6 6 5 5 5 4 4 3 1 1 1 3 3 5 4 4 4 3 3 4 3 3 3 5 5 2 5 5 4 5 6 9 9 7 7 9 8 8 10 9 8
9 11 14 15 12 12 10 9 7 9 10 10 10 12 13 8 2 2 4 7 6 5 7 5 6 6 5 6 6 6 6 6 7 7 7 5 5 5 5 6 6 6 6 6 6 6 7 6 5 5 5 5 4 1 2 3 3 4 4 3 3 3 4 4 4 4 4 3 3 6 4 6 8 4 6 8 8 8 9 8 7 9 10 12 10
10 12 13 11 8 9 8 7 4 4 6 10 11 9 6 4 5 5 7 7 6 4 2 2 4 7 6 6 6 6 5 4 3 1 1 2 2 2 4 5 6 6 6 7 7 6 7 6 6 6 6 6 5 4 4 3 4 3 3 3 2 3 4 3 4 4 3 4 3 2 5 3 3 7 8 6 5 3 8 11 11 8 6 7 10
7 11 12 12 9 4 4 6 8 9 8 8 7 4 7 6 3 2 4 4 4 5 1 6 9 4 3 6 7 6 6 5 4 4 4 5 5 5 6 5 6 6 6 6 6 7 7 7 7 7 7 6 6 6 6 6 4 4 2 3 3 4 3 3 4 4 5 4 3 4 3 3 6 2 4 6 10 9 7 5 8 10 10 7 4
7 5 7 9 9 5 4 6 6 5 9 10 7 3 1 3 6 6 5 1 2 2 1 4 5 7 8 5 3 1 3 5 5 6 6 6 6 7 7 7 8 8 6 6 5 6 6 6 6 6 7 9 11 9 8 8 5 5 2 3 3 2 1 2 3 4 4 4 5 3 5 6 5 7 9 7 7 7 7 5 6 6 7 9 7
9 9 9 7 7 5 7 7 7 4 2 7 9 9 8 8 7 7 7 9 9 8 9 9 8 9 8 6 3 3 4 3 4 8 8 6 6 6 6 8 8 8 8 7 6 5 6 6 6 11 12 12 12 12 11 10 8 6 6 5 4 3 1 0 1 1 2 5 5 5 7 7 6 5 5 5 5 4 5 6 8 8 8 9 6
7 8 8 8 8 7 5 4 4 6 6 4 5 7 7 7 6 5 6 7 6 7 8 6 6 6 6 5 4 3 3 3 6 7 8 9 5 4 5 7 7 8 9 9 8 7 5 5 5 9 10 10 10 13 11 11 10 10 10 9 8 5 3 2 1 1 1 2 2 3 3 6 7 5 5 7 5 5 5 5 5 6 6 8 12
7 6 7 7 7 6 6 6 6 6 5 6 7 8 8 8 6 6 4 3 5 5 5 7 6 6 5 3 2 3 3 3 6 5 5 6 7 7 6 7 7 8 8 8 5 5 6 5 4 4 4 6 5 6 7 9 10 10 10 10 9 8 7 5 3 1 2 3 3 4 3 5 6 5 5 5 7 7 7 6 5 5 7 6 6
5 5 5 7 6 7 7 8 8 7 6 6 4 4 4 3 2 2 5 6 4 5 6 4 4 3 2 2 3 1 1 7 7 5 4 6 9 9 7 7 7 7 7 6 7 8 8 6 4 3 3 7 7 5 5 5 5 7 8 8 7 8 7 6 5 4 3 3 4 4 4 3 4 4 2 4 4 7 8 7 6 5 5 7 7
4 3 5 5 6 6 6 6 6 5 5 5 4 4 4 4 1 1 1 0 1 2 2 3 4 3 2 3 1 2 2 5 4 3 5 6 7 7 5 6 6 5 6 8 9 7 7 7 6 5 3 3 3 4 3 3 3 3 3 3 4 4 5 6 7 7 5 5 4 5 4 2 4 4 5 4 4 6 6 8 7 7 7 8 8
1 1 3 4 5 6 6 6 6 5 5 5 5 4 3 2 3 2 2 2 3 3 2 2 2 0 1 2 4 3 2 4 1 3 3 3 3 1 1 2 3 3 2 1 2 2 3 4 5 4 1 2 3 4 4 4 3 2 2 3 4 3 2 1 1 1 2 2 3 3 4 3 3 4 4 3 3 4 4 5 6 7 8 8 7
1 0 1 3 5 5 6 5 5 5 5 4 4 4 3 1 1 2 3 2 1 0 0 3 3 3 3 4 5 3 1 1 7 8 9 8 8 5 5 5 5 5 5 5 5 5 4 4 4 3 3 2 2 4 4 2 3 3 3 1 2 2 1 2 4 5 4 3 1 0 2 3 4 3 3 4 4 4 5 4 4 5 7 9 11
3 2 3 2 5 5 5 5 5 5 4 4 3 1 1 1 1 1 2 3 4 3 3 1 4 5 5 4 5 3 1 2 7 10 10 11 8 6 6 6 6 6 5 4 5 4 3 2 3 5 4 3 4 7 4 5 1 1 1 1 2 3 4 4 5 5 4 2 1 1 3 5 6 7 8 9 6 5 5 6 6 5 7 10 11
2 1 2 3 3 5 5 6 6 5 5 5 3 2 1 1 1 1 1 2 4 3 0 2 1 3 7 5 5 6 3 1 5 9 10 9 8 7 6 7 5 5 6 4 5 6 6 7 5 6 7 5 7 11 10 9 6 4 3 2 2 3 3 2 3 3 4 4 5 6 6 7 9 9 8 8 9 6 3 7 6 5 7 6 10
1 3 3 1 2 2 2 4 6 5 5 5 5 4 4 3 1 2 2 2 1 1 2 2 2 2 2 4 6 7 4 2 4 9 11 10 8 5 6 6 6 4 5 5 5 5 5 6 8 8 8 8 11 10 10 8 6 4 3 2 1 2 3 0 2 4 5 6 6 6 6 8 7 6 7 11 12 9 5 6 5 6 7 7 7
1 0 1 2 3 2 2 1 2 5 6 5 4 5 4 2 2 1 3 3 4 3 3 3 3 2 2 2 3 3 6 3 2 8 9 10 9 6 6 6 5 4 4 5 5 5 5 5 7 11 11 11 10 9 7 7 5 4 3 2 0 3 1 0 1 1 2 2 4 4 5 5 6 5 5 6 7 5 7 6 6 6 7 7 7
2 0 2 1 3 3 1 2 2 1 2 3 2 1 3 5 3 1 3 4 5 5 4 3 4 3 4 3 3 2 2 4 2 7 9 10 10 10 5 6 5 5 5 5 5 5 5 4 4 6 9 9 8 7 7 6 6 4 3 2 2 1 1 0 3 3 2 3 4 4 6 6 6 5 6 6 7 7 7 6 6 6 6 7 7
3 1 1 0 1 1 4 2 1 2 2 3 1 1 2 1 2 3 4 5 5 5 4 4 4 4 4 4 3 3 3 3 4 5 8 9 9 10 7 4 5 7 6 5 5 4 4 4 3 4 6 7 7 6 6 6 4 2 2 4 4 2 1 1 1 2 3 4 4 5 6 6 6 6 7 7 7 7 7 7 7 7 6 7 8
4 4 1 0 0 1 2 2 1 2 1 1 1 0 1 0 1 2 4 5 5 5 5 4 4 4 4 4 3 3 3 2 4 4 7 9 9 10 9 6 4 4 6 5 4 5 4 4 3 5 5 4 4 4 4 3 2 1 2 2 3 3 1 1 1 3 4 4 5 6 6 6 6 7 7 7 7 7 7 7 8 8 8 8 8
4 1 2 3 2 2 1 3 2 0 1 3 2 1 2 3 2 1 3 5 6 5 5 6 5 5 4 3 2 2 2 2 2 4 6 9 9 9 9 9 8 6 5 5 3 4 3 1 1 3 3 2 2 3 3 3 2 3 3 5 4 2 0 1 3 3 3 4 5 6 6 6 6 6 6 7 7 7 7 7 7 8 8 8 8
4 4 4 4 6 5 5 4 4 4 3 3 2 2 2 1 1 0 3 4 5 6 5 6 7 6 5 6 4 2 2 2 2 3 6 8 9 9 10 10 9 8 6 4 4 3 2 1 1 2 4 5 5 5 3 2 4 5 4 2 2 1 1 1 4 3 5 5 6 6 6 6 7 7 7 7 7 6 5 6 6 7 7 8 9
6 6 5 5 5 4 4 3 3 3 2 1 1 1 1 1 2 3 4 4 5 6 7 6 6 6 6 6 6 6 3 3 3 3 3 6 7 9 9 9 9 9 8 5 7 7 5 4 4 3 1 0 1 1 1 1 2 4 4 3 1 0 1 2 3 3 5 6 6 6 7 6 7 7 7 6 6 7 6 6 6 6 6 7 8
5 4 4 5 5 3 4 4 4 4 4 3 2 2 4 4 4 4 6 6 4 3 3 2 2 3 5 5 5 5 4 4 4 3 3 5 4 4 6 6 7 7 5 3 4 4 5 5 5 7 7 8 8 6 6 5 4 4 4 3 3 3 3 3 3 4 5 6 6 7 7 7 6 6 7 7 7 7 6 7 7 7 6 6 7
4 4 4 4 5 4 4 6 5 4 2 2 4 3 2 5 6 6 7 7 7 7 7 7 8 8 7 6 5 5 3 3 2 4 3 5 5 5 5 5 4 4 4 3 3 4 4 6 8 6 6 7 6 6 6 5 4 5 5 4 4 3 3 4 4 3 4 5 6 6 7 7 7 8 7 7 7 7 6 7 7 8 6 6 7
4 4 4 4 5 4 6 6 7 5 4 3 4 2 1 1 4 6 5 7 11 10 8 8 8 7 8 9 8 6 5 7 6 4 4 7 8 6 5 5 3 4 3 2 3 5 5 7 6 6 6 5 5 5 4 5 5 3 3 4 4 4 5 6 6 6 7 7 8 8 8 8 8 8 8 8 8 8 6 7 7 8 7 6 8
5 5 5 4 4 3 4 6 5 6 6 6 6 4 5 8 5 0 3 4 5 7 11 9 10 8 7 4 4 8 9 7 6 9 10 11 11 11 9 7 5 4 6 7 6 6 5 5 4 4 5 5 5 5 5 4 5 6 5 4 4 5 5 5 6 6 6 6 7 8 8 8 9 8 8 9 8 7 7 8 8 6 7 7 9
6 6 6 6 6 5 5 4 4 6 6 7 6 7 5 6 11 12 7 3 7 8 5 7 11 10 11 7 4 9 10 12 12 12 14 14 13 12 10 9 8 6 3 5 6 5 5 6 4 4 4 3 4 5 4 5 6 6 6 6 5 5 5 6 7 6 6 7 7 7 8 8 9 8 9 9 9 9 8 6 6 7 8 8 9
6 6 6 5 6 5 4 4 5 6 6 6 7 7 7 6 6 11 14 11 7 7 11 14 14 12 12 14 9 6 8 10 12 13 13 13 12 12 10 8 6 6 6 8 6 5 5 5 5 4 4 5 5 5 5 6 6 6 6 6 6 5 5 6 7 6 7 7 7 8 8 8 8 9 9 9 9 9 9 8 7 8 8 8 9
7 6 6 6 6 6 5 6 6 7 7 6 6 6 7 7 8 5 8 12 14 11 7 11 13 13 12 11 14 12 10 10 12 12 12 12 11 10 10 9 7 6 10 8 6 4 4 3 4 4 4 4 4 5 5 5 5 6 5 5 6 6 6 7 6 7 7 8 8 8 8 9 9 9 9 9 9 9 8 9 8 8 8 9 9
8 7 7 7 7 6 7 6 7 8 8 9 8 8 7 8 8 8 8 6 8 10 12 10 11 15 13 15 15 15 13 12 12 11 11 10 10 9 8 6 9 9 8 5 5 3 2 3 4 4 4 4 4 4 5 6 5 4 5 5 5 6 7 7 7 8 8 8 8 9 9 9 8 9 9 9 8 9 9 9 8 8 8 8 9
8 9 12 9 7 7 7 7 8 8 8 8 8 8 8 7 9 9 9 9 7 7 5 5 6 9 12 11 13 14 14 13 12 11 11 9 8 7 8 6 5 4 5 4 3 3 2 1 2 2 3 3 4 3 3 4 5 4 5 6 7 7 8 8 8 8 8 8 9 9 9 9 9 9 9 9 8 9 9 9 8 8 9 9 9
10 9 9 10 8 7 5 6 7 8 9 8 8 8 8 8 8 7 6 8 10 9 6 5 5 6 11 12 14 14 13 13 12 11 10 8 6 7 6 6 6 5 5 2 2 0 1 2 3 3 3 3 2 2 3 5 5 5 6 6 8 8 8 8 9 9 9 9 9 10 9 9 9 9 9 9 10 10 9 9 9 9 9 9 8
10 8 8 8 9 8 7 6 7 8 7 8 7 7 7 7 7 8 8 9 8 8 9 8 8 7 6 5 9 12 12 12 11 11 10 9 8 7 6 6 6 5 4 2 1 2 4 1 1 2 1 1 2 3 4 5 6 7 7 8 7 9 8 8 9 9 9 9 9 9 9 9 9 9 9 9 9 9 9 9 9 9 9 10 10
11 10 9 8 7 9 7 7 7 9 8 8 7 8 9 8 9 9 9 9 10 10 9 8 7 9 9 6 3 5 8 10 11 8 6 6 6 6 6 6 6 6 4 2 2 3 2 1 0 1 1 1 3 5 6 6 6 7 8 8 8 8 14 12 12 10 9 9 9 9 9 9 9 8 8 8 9 9 9 9 8 9 9 10 9
11 14 14 13 10 9 8 7 8 9 8 8 8 8 8 9 8 8 8 8 8 8 8 8 8 8 7 6 5 5 7 5 5 5 4 4 5 5 6 6 5 4 3 3 2 2 1 1 0 0 1 3 5 6 5 6 7 8 8 8 9 9 10 8 9 9 9 9 9 9 8 9 8 8 8 8 9 8 9 9 8 8 9 9 8
10 9 12 15 9 9 8 9 9 9 9 9 8 9 10 9 9 10 9 9 9 8 7 7 7 7 7 6 6 5 6 5 5 5 5 5 6 5 5 6 5 5 3 2 2 2 2 1 0 2 3 4 5 5 5 6 7 8 8 8 8 9 10 9 9 9 9 9 9 9 9 9 9 8 8 8 8 8 8 9 8 8 8 9 9
8 8 9 10 10 8 8 9 9 10 9 10 10 11 10 9 8 8 7 8 8 8 6 6 6 6 6 7 7 7 6 5 4 5 6 7 6 6 5 5 5 3 3 3 3 3 2 1 1 3 4 4 4 5 6 6 7 7 8 8 8 9 9 9 9 9 9 9 9 9 9 9 9 8 8 8 8 8 8 8 8 8 8 8 8
7 7 8 8 10 9 8 7 7 7 8 10 9 8 9 9 9 9 9 8 7 6 6 6 5 5 6 11 10 9 6 5 5 6 5 6 6 5 5 4 3 4 5 5 4 3 2 1 2 2 4 5 6 6 6 6 7 8 8 8 9 9 9 9 8 9 9 9 9 9 9 9 9 9 9 8 8 7 7 7 7 7 7 7 8
9 8 8 8 9 9 9 8 9 9 8 9 9 8 9 10 9 8 8 7 7 7 7 6 5 4 5 5 8 8 5 5 5 5 6 5 5 5 4 3 3 4 4 3 3 3 3 3 2 2 3 5 5 6 6 7 7 8 8 8 9 9 9 9 8 9 9 9 9 10 10 10 9 8 8 8 8 8 7 7 7 7 7 7 7
11 10 9 9 9 9 9 9 9 8 8 9 9 8 8 8 8 8 7 7 6 6 6 5 5 4 4 5 6 5 5 5 5 5 6 6 6 5 4 3 2 3 1 1 2 1 5 3 3 4 4 5 5 5 5 6 6 7 7 7 8 9 9 9 9 9 9 9 10 10 9 9 9 8 8 8 8 8 8 7 7 7 7 6 6
11 11 11 10 10 10 10 9 9 9 9 8 8 8 7 8 7 7 7 6 6 6 5 5 5 5 5 5 6 6 6 6 6 6 5 5 5 3 2 3 3 1 0 1 1 2 6 4 4 4 5 6 6 5 6 6 6 6 6 6 7 8 8 9 9 9 10 10 9 9 9 8 9 8 8 8 8 8 8 8 7 7 7 6 5
11 11 11 10 10 9 9 8 8 8 8 7 7 6 6 7 7 7 6 6 6 6 5 5 5 5 6 6 6 6 6 6 6 5 6 5 4 3 2 3 2 1 1 1 2 5 5 3 3 4 5 6 6 6 6 6 6 6 6 5 6 7 8 8 9 9 9 9 9 8 8 8 8 8 9 8 7 7 8 8 7 6 6 6 5
11 10 10 9 9 9 8 8 7 7 7 7 7 7 6 6 6 6 6 7 7 6 6 5 6 6 6 6 6 6 6 6 6 6 5 4 3 4 3 2 2 1 1 1 3 6 4 4 4 4 5 5 5 6 6 6 6 6 6 6 6 7 7 8 9 9 8 8 9 8 8 8 8 7 9 8 8 8 8 7 7 7 6 5 5
9 9 9 9 9 9 8 8 9 9 8 7 7 7 7 7 6 7 6 7 7 6 6 6 6 6 6 5 5 5 6 6 5 5 5 4 4 3 2 2 1 1 1 3 4 5 4 4 4 5 5 5 6 5 6 7 6 7 7 7 7 8 12 13 9 8 7 7 8 8 8 8 7 7 8 8 8 7 8 7 7 6 6 5 5
9 9 9 9 8 8 8 8 8 7 7 7 8 8 7 7 7 6 7 7 7 6 6 6 6 6 6 5 5 5 6 6 5 4 5 5 3 1 2 2 2 1 2 4 4 4 4 5 4 5 5 5 4 5 6 6 7 7 8 8 11 17 18 17 11 9 10 8 7 7 7 7 7 7 8 8 8 7 7 7 6 6 6 5 5
8 8 8 8 8 8 8 8 7 7 7 7 8 7 7 7 7 7 7 7 7 7 6 6 6 6 6 6 6 6 5 5 5 5 4 3 2 1 2 3 3 3 3 4 3 3 3 4 4 5 5 4 4 5 6 6 6 8 8 10 15 17 17 17 16 15 11 7 7 6 7 7 7 6 6 7 7 8 7 7 7 6 5 5 5
8 8 8 8 8 7 8 8 8 7 7 7 7 7 8 8 7 7 7 7 7 6 6 6 6 6 6 5 5 6 6 5 5 5 4 3 2 2 3 3 3 3 3 3 4 4 4 4 5 5 4 3 4 6 6 6 6 8 11 15 16 17 18 16 12 13 16 11 6 6 6 7 7 7 7 7 7 7 8 8 7 6 5 5 5
Wind_Direction
180 195 191 203 194 180 175 177 179 179 178 176 174 184 185 181 184 192 179 188 176 171 169 169 166 166 164 167 166 167 159 164 152 149 148 153 165 164 160 153 148 171 162 188 166 146 153 159 188 211 120 81 70 40 32 11 11 17 11 19 347 3 29 338 319 303 307 240 276 325 320 340 341 348 342 338 334 333 331 319 317 323 320 317 319
190 192 189 192 187 172 169 174 179 182 179 182 179 179 182 183 186 177 187 191 183 177 173 170 168 164 166 170 171 170 166 168 162 154 154 162 178 180 163 161 163 174 172 179 193 188 161 173 220 243 231 129 72 28 31 27 13 17 15 41 22 7 16 47 305 287 307 331 343 332 330 357 335 345 349 343 337 336 335 334 334 330 324 324 326
190 184 180 186 176 165 158 165 176 182 179 180 184 177 181 184 177 181 188 186 194 181 175 172 171 168 166 170 170 174 174 174 169 167 165 168 177 191 180 172 173 181 187 205 201 183 159 182 213 215 158 155 273 33 58 44 55 62 37 39 59 39 32 42 44 341 320 310 321 339 343 342 346 339 346 346 340 338 342 345 345 344 347 346 343
187 187 183 186 167 149 153 158 166 172 177 180 180 177 174 178 180 184 182 177 181 190 168 163 162 165 163 164 170 175 181 182 179 180 179 174 178 188 189 182 185 188 191 196 194 181 186 182 215 191 182 178 244 340 43 65 90 105 81 61 78 49 49 55 60 45 301 332 318 332 334 344 337 346 345 351 353 348 353 346 354 1 359 357 351
32 5 338 257 160 149 135 121 84 61 45 24 11 350 186 170 177 176 165 173 174 159 157 152 150 154 160 167 168 174 186 186 190 197 194 190 186 186 189 192 192 196 197 195 190 187 187 191 194 177 165 190 264 312 53 63 59 66 58 35 47 34 41 45 43 60 34 349 314 301 340 334 332 336 359 356 346 350 357 358 352 354 353 352 356
81 74 54 21 3 31 38 50 75 101 96 80 64 36 6 5 25 82 149 157 157 161 153 158 154 156 156 162 164 172 179 185 189 199 203 197 196 191 189 195 202 200 198 196 192 192 188 198 183 172 170 184 210 167 109 110 94 80 75 57 49 44 40 27 35 33 27 355 336 321 5 359 342 342 354 355 348 345 350 347 350 3 1 352 350
93 86 87 78 40 43 68 71 37 36 88 107 106 99 74 55 26 7 21 30 26 23 16 125 168 153 162 159 165 167 174 180 182 192 226 191 183 212 223 210 210 208 205 197 194 191 192 194 187 175 180 190 178 159 140 124 115 109 108 104 65 61 39 30 22 23 29 4 333 8 325 344 8 331 341 343 338 11 1 348 346 351 357 357 340
107 116 115 108 93 32 11 69 79 72 45 44 46 68 110 117 109 3 36 50 80 102 82 331 329 318 197 183 183 178 172 174 168 169 184 203 198 209 219 227 223 219 215 208 194 191 191 192 187 182 184 184 169 167 150 148 138 116 148 103 73 54 38 20 23 19 12 5 4 325 337 319 337 301 312 345 354 354 14 5 336 336 338 339 336
87 36 66 97 111 109 13 6 39 69 114 113 115 117 181 151 133 136 121 115 308 317 227 185 210 255 273 262 254 226 189 198 190 192 197 209 209 216 211 213 220 222 219 214 204 195 191 186 181 174 175 170 168 162 162 156 146 136 160 114 102 101 68 41 30 22 4 6 338 336 335 339 333 339 342 356 353 319 317 348 323 324 322 325 330
131 138 133 136 148 177 172 171 151 140 193 164 162 172 173 173 160 156 174 180 185 195 214 217 213 219 232 240 226 214 235 242 223 212 209 207 211 217 214 215 215 216 213 207 206 199 187 181 176 166 161 159 158 155 154 153 150 144 157 145 139 126 133 124 47 52 20 351 330 340 339 326 325 333 321 310 303 302 326 340 333 326 331 324 312
138 144 148 156 158 160 157 153 137 193 195 172 143 157 180 189 182 179 195 189 198 198 207 222 231 232 232 240 244 234 245 254 261 252 250 250 245 233 222 222 214 212 210 200 194 190 191 183 165 162 158 156 154 155 157 156 152 151 156 156 158 149 152 158 210 164 193 245 276 330 306 302 305 314 310 309 314 312 311 321 311 326 342 342 324
140 140 141 143 155 167 160 163 173 183 171 165 164 170 178 179 188 171 161 167 208 198 201 210 213 221 219 218 230 246 255 313 342 334 300 277 259 250 242 231 220 215 209 199 179 163 178 173 172 159 155 149 150 157 164 168 164 162 160 154 152 156 156 162 183 179 189 225 265 258 250 274 286 308 303 313 312 322 319 323 319 324 323 316 298
117 129 147 155 158 159 160 160 160 158 157 155 145 128 134 143 144 157 197 213 190 207 222 215 228 220 214 233 245 283 332 13 5 347 296 245 225 216 236 228 214 211 197 153 148 185 178 158 138 110 130 158 164 171 173 188 185 161 148 144 157 171 181 183 184 193 177 196 223 249 229 248 283 278 279 309 332 318 320 320 320 313 301 299 291
92 120 141 136 136 146 143 140 143 147 146 142 132 119 103 108 136 194 216 143 178 222 249 261 270 264 222 225 250 47 40 335 313 267 267 259 244 203 214 210 208 196 178 179 185 169 160 159 154 173 167 175 175 169 184 198 159 134 139 163 187 206 207 206 206 216 209 207 212 239 249 188 259 289 306 333 327 306 314 307 316 313 306 291 292
36 89 123 118 125 126 128 132 138 150 140 115 89 74 66 40 62 90 127 142 148 166 190 221 247 162 111 102 86 48 6 329 40 58 24 4 11 356 26 57 65 69 66 60 62 82 109 122 130 140 163 176 182 182 195 205 177 170 158 203 221 237 237 269 284 236 226 246 244 267 300 312 281 286 294 305 279 270 267 273 285 285 286 290 282
293 336 217 125 136 137 133 132 128 123 107 90 82 66 56 79 50 1 56 47 72 89 122 100 122 118 105 100 98 89 347 48 97 91 94 95 84 73 77 76 77 75 78 94 107 117 120 122 129 142 167 171 318 226 221 169 174 197 226 307 358 354 26 50 48 79 81 90 102 252 269 278 287 287 292 295 292 285 292 292 294 293 306 311 302
264 266 262 192 161 154 145 136 135 122 109 97 89 84 89 39 24 74 37 18 7 354 2 85 150 141 139 140 126 126 91 92 108 109 108 105 93 89 90 90 86 86 80 85 89 77 69 101 125 120 89 58 54 76 74 120 83 73 72 57 15 22 1 0 47 68 57 64 125 262 286 299 306 304 299 293 285 284 292 302 296 300 304 301 293
334 261 291 303 237 173 170 151 152 143 131 143 162 187 203 278 268 156 79 354 1 352 107 94 109 147 148 158 151 134 148 141 117 107 103 101 109 109 106 100 91 90 81 49 59 66 44 55 92 93 98 92 86 81 80 88 88 86 79 66 37 3 320 330 342 340 354 353 346 339 334 330 327 325 319 311 307 304 297 294 294 298 286 281 290
351 78 23 17 181 208 193 162 148 149 153 174 173 174 192 200 192 115 92 94 88 113 102 103 80 70 122 145 152 134 147 150 130 112 110 111 106 106 104 96 87 67 84 78 59 67 60 45 76 104 110 109 94 90 96 101 113 127 138 116 74 320 275 292 360 345 343 346 340 342 335 331 326 319 311 310 308 308 289 275 284 279 281 285 285
196 205 120 75 61 77 138 145 143 158 175 183 180 186 187 153 162 128 95 105 100 88 88 82 83 50 43 93 110 124 132 125 119 114 109 106 109 103 99 102 104 93 78 95 85 58 63 76 75 93 95 94 96 99 106 117 124 146 130 106 87 304 240 135 272 262 289 297 290 298 291 291 298 295 294 294 293 280 280 274 266 257 268 277 277
288 198 157 111 91 94 45 121 142 225 212 200 214 226 169 175 155 143 103 80 85 79 80 81 77 53 42 36 53 55 102 119 109 110 107 109 111 108 100 113 123 108 96 84 100 105 94 87 82 100 111 116 120 125 126 126 133 143 149 151 186 200 137 357 296 322 317 301 300 304 298 298 292 289 283 283 277 274 270 268 262 249 248 264 273
231 175 146 38 300 89 132 164 152 130 162 151 143 265 308 340 208 137 100 101 96 99 100 98 93 72 50 49 49 42 42 70 106 95 107 107 108 112 110 128 136 117 95 101 109 114 131 135 138 159 143 136 136 141 145 149 153 131 179 194 228 267 326 293 302 314 306 301 303 302 299 297 294 290 285 276 270 268 265 264 266 261 244 236 247
196 187 177 196 165 169 160 143 160 157 115 105 104 241 311 334 299 107 100 94 107 118 121 115 108 93 66 51 50 52 55 63 94 100 98 100 98 98 111 119 102 94 117 126 138 146 153 160 171 172 176 160 163 158 162 171 123 250 245 263 277 310 328 284 295 312 310 305 300 291 284 282 282 278 274 271 263 261 262 261 262 264 265 257 243
277 255 187 190 169 191 225 278 304 251 164 146 146 193 254 255 269 82 136 130 129 125 126 125 116 122 121 94 68 67 61 78 69 102 111 109 106 95 80 70 70 76 80 87 94 120 125 128 184 204 221 237 220 225 224 192 206 233 259 262 273 294 25 342 321 291 285 288 288 282 277 269 270 273 268 262 263 261 262 261 261 259 259 261 261
206 222 232 211 206 205 206 206 224 211 204 157 159 177 203 171 214 170 131 137 143 142 153 148 149 152 148 148 141 130 106 79 69 57 78 91 91 92 87 81 78 81 81 81 82 79 106 174 299 267 257 247 248 251 246 230 221 224 239 305 29 52 356 267 264 276 284 276 272 270 271 267 262 265 270 273 271 275 277 273 268 267 269 270 269
225 227 232 236 235 226 204 209 185 199 212 165 181 181 209 181 165 171 160 170 170 161 164 158 156 157 161 162 156 164 150 119 94 88 100 102 93 93 95 92 89 91 98 98 113 118 133 167 173 197 174 201 140 115 98 58 26 18 354 8 35 304 263 268 278 271 267 272 274 275 273 275 276 270 271 275 276 272 268 268 271 274 274 277 283
268 256 245 246 252 241 216 211 219 217 206 144 110 150 172 158 159 171 175 167 165 153 144 151 121 123 149 157 156 154 147 136 129 121 116 99 93 91 84 76 73 70 60 46 44 50 55 63 72 74 74 61 57 52 47 25 28 19 6 3 345 323 305 283 280 285 293 294 294 290 287 279 281 291 287 280 277 274 263 270 270 270 268 270 273
265 261 238 209 202 201 212 236 229 220 169 116 128 110 141 168 163 172 171 169 155 149 138 153 170 183 182 169 151 139 125 112 144 135 121 109 94 86 84 81 73 75 64 40 53 42 56 54 50 37 38 35 28 23 15 16 19 6 345 337 328 325 321 310 316 307 295 285 287 294 294 296 291 284 283 280 274 275 274 274 272 275 268 276 277
233 248 263 259 245 222 204 200 209 187 119 74 51 73 123 235 217 207 211 175 167 164 185 183 183 186 167 163 152 149 146 164 188 193 162 143 132 116 104 105 104 76 77 98 84 53 55 51 42 37 35 40 26 16 4 3 349 340 334 334 337 339 342 352 333 314 309 315 308 304 299 295 290 286 282 280 275 274 266 267 261 263 268 256 266
228 235 236 232 250 242 222 212 186 149 144 139 127 82 65 74 43 202 220 231 215 199 167 178 186 159 145 160 175 169 177 181 152 138 122 109 103 105 108 109 100 95 76 67 88 79 64 70 48 55 38 32 23 3 351 347 343 338 329 324 336 344 334 322 307 299 299 295 293 294 291 291 288 286 283 280 280 271 262 254 265 253 263 263 269
231 228 219 224 219 219 224 213 170 151 153 150 140 131 104 29 34 32 24 342 173 150 157 129 141 152 149 137 82 94 119 128 135 127 117 114 113 110 104 94 82 77 105 93 48 66 62 60 30 29 20 18 13 353 349 352 338 335 326 328 332 331 319 306 299 297 293 291 291 286 286 286 287 287 285 283 282 280 276 262 249 252 256 264 266
252 244 228 225 226 223 192 157 143 139 148 150 149 146 133 105 43 28 30 39 51 128 145 145 150 144 138 131 120 82 106 121 123 120 120 117 114 112 109 104 96 76 66 90 78 50 56 58 32 15 10 16 348 351 353 352 339 333 326 330 319 304 296 297 294 290 287 285 288 289 288 287 286 287 284 284 282 281 279 277 270 267 265 263 262
241 241 233 223 214 218 175 155 155 149 147 148 153 148 141 141 121 77 30 44 53 51 87 132 133 133 128 123 130 135 138 131 125 120 117 113 112 113 111 106 97 84 69 62 92 62 41 53 37 2 14 5 352 357 350 344 342 332 322 302 306 307 300 295 298 295 291 290 291 290 289 288 285 284 282 280 279 279 278 275 273 269 266 267 265
229 224 225 222 210 206 199 182 169 170 168 168 166 165 162 149 144 137 117 92 52 47 46 65 108 113 113 118 117 117 120 120 119 117 113 111 111 112 106 94 77 63 91 108 89 87 52 32 14 10 3 13 7 6 358 345 321 295 292 293 297 304 306 311 312 304 300 296 292 288 286 284 282 283 282 279 275 274 274 271 269 269 267 262 266
236 228 222 218 217 214 195 182 176 169 167 165 164 161 155 156 149 146 149 141 130 118 115 69 57 107 123 119 120 120 121 122 121 117 109 106 103 104 97 86 63 35 42 61 93 96 81 59 44 15 15 17 3 350 316 295 294 304 312 317 319 315 311 310 302 297 293 292 290 286 285 285 282 277 277 278 278 276 273 273 269 264 267 268 265
232 230 224 218 213 210 189 174 171 168 171 172 168 159 151 147 142 137 128 128 128 127 102 86 88 67 99 114 121 121 120 119 117 109 105 97 100 91 87 92 89 87 90 64 74 96 124 96 68 17 18 18 308 299 306 314 313 321 318 313 306 304 303 300 297 294 291 289 287 286 287 284 281 280 279 275 274 274 274 272 271 269 264 264 263
226 222 218 208 202 200 192 173 172 173 163 152 144 138 140 134 133 132 135 134 132 128 127 126 113 95 75 82 110 113 115 115 112 106 96 86 76 79 112 123 125 114 117 143 152 103 69 35 52 38 16 320 330 322 321 333 334 323 309 301 296 297 294 291 291 292 293 293 292 292 290 288 287 285 283 281 278 275 272 271 269 266 264 262 262
218 213 209 196 194 191 181 176 167 154 149 146 145 145 147 146 143 141 139 140 140 136 134 135 130 133 137 146 160 129 120 112 103 87 81 78 70 82 102 120 127 134 150 159 146 125 115 37 250 142 289 346 346 341 351 335 320 308 301 298 296 288 296 295 294 292 292 293 294 293 292 290 287 287 284 280 279 280 277 273 272 272 269 261 257
217 206 196 188 186 181 173 155 151 149 146 141 143 137 130 134 135 132 133 135 135 133 136 139 142 142 142 143 127 144 117 106 108 115 89 79 82 107 118 119 123 124 133 158 151 115 157 184 224 233 23 11 4 354 333 308 302 299 298 297 295 292 295 294 296 299 300 298 297 295 294 291 290 287 284 281 278 276 276 275 271 268 268 269 262
204 191 191 183 174 165 152 156 152 149 149 145 147 141 141 146 144 144 143 140 137 138 140 144 147 146 147 137 136 134 122 138 142 141 117 110 114 122 127 128 130 140 158 150 142 175 191 196 186 37 15 11 356 322 302 296 293 292 295 293 294 296 296 297 297 300 301 301 298 297 297 296 295 291 287 280 278 279 279 278 276 269 268 269 269
178 169 166 173 153 149 144 149 155 154 154 152 152 147 144 138 131 125 127 131 134 137 145 144 141 142 148 148 143 131 132 146 143 133 137 135 140 136 134 138 146 163 161 153 181 198 176 170 30 27 7 346 315 300 293 294 293 293 294 294 295 294 296 297 297 299 301 300 299 301 301 300 298 298 295 293 291 288 282 279 276 274 271 270 269
118 123 130 131 136 129 130 119 112 114 128 126 125 129 128 134 134 134 130 131 135 137 131 123 126 137 146 141 128 118 116 124 125 128 126 128 130 130 139 158 179 165 162 177 185 180 171 98 46 11 342 314 302 297 297 297 297 299 300 302 302 302 302 302 304 304 303 302 303 302 302 301 299 297 294 295 295 291 288 282 281 279 276 273 272
90 101 107 115 116 122 120 123 124 124 125 125 127 123 126 127 121 119 121 131 141 137 129 125 129 123 133 134 134 127 109 124 130 127 123 127 124 127 137 160 179 174 174 193 212 186 125 87 17 312 292 291 291 291 297 297 297 300 301 302 304 304 304 305 307 307 307 305 304 303 302 302 304 306 305 304 300 298 292 290 288 285 281 275 275
83 81 85 92 94 96 102 109 107 106 105 108 107 109 111 109 113 123 129 133 132 125 123 128 129 120 108 105 122 119 125 127 122 125 130 126 127 132 150 162 120 82 52 319 273 207 89 62 343 311 304 298 295 290 286 287 292 295 300 303 305 307 308 309 310 310 309 306 303 304 305 305 307 308 311 310 310 307 307 303 298 294 290 288 284
78 82 86 85 84 88 85 87 96 106 113 112 112 113 118 122 125 127 125 124 116 117 120 126 123 121 120 122 126 128 130 126 125 121 120 125 123 138 149 95 76 71 16 300 301 43 53 21 337 328 316 309 305 304 301 300 301 300 299 303 307 310 311 310 308 306 303 300 300 303 306 309 311 313 313 314 313 312 310 310 306 301 299 295 297
85 88 89 92 94 97 101 104 105 105 109 109 115 116 117 114 116 118 118 116 117 123 123 122 121 123 123 122 121 121 124 118 117 116 116 118 124 133 97 74 53 8 306 300 7 50 45 17 338 325 311 306 308 313 316 310 312 312 311 307 306 302 302 303 305 304 302 302 304 306 306 308 311 311 314 314 314 312 309 307 304 302 300 301 296
71 78 79 85 86 92 91 95 95 98 97 96 100 102 106 107 108 106 106 114 117 118 115 119 117 119 119 120 124 121 123 120 122 120 126 130 125 112 84 70 40 334 310 2 37 41 26 357 340 323 312 309 317 324 322 320 319 317 318 315 310 311 313 314 308 300 295 295 299 302 306 310 312 316 318 321 320 320 318 312 313 313 315 311 312
66 71 77 84 86 86 87 88 87 83 83 84 88 93 98 100 102 103 106 105 102 103 102 101 103 108 109 103 99 105 108 111 112 115 115 111 103 101 89 78 60 319 342 22 24 28 11 345 324 321 324 325 331 328 326 324 325 326 324 321 316 318 316 317 307 303 294 299 296 302 308 312 315 318 322 323 323 323 322 323 323 325 324 324 324
60 63 67 65 72 76 82 83 84 87 91 93 90 88 89 90 90 90 89 89 91 89 94 97 93 88 85 84 86 91 98 103 107 106 100 97 96 100 89 69 40 352 22 23 19 10 346 329 323 325 328 331 334 334 331 331 334 336 330 324 323 325 325 325 322 311 312 306 303 307 313 316 320 323 325 327 328 326 323 322 325 327 328 330 332
59 61 68 69 71 70 71 72 74 76 74 81 86 87 83 85 80 80 82 83 80 79 77 80 81 82 89 86 83 84 88 93 95 95 94 90 90 79 61 37 11 356 10 18 3 341 329 329 334 333 338 344 348 345 334 336 340 335 331 324 323 325 328 330 328 326 327 318 313 312 314 315 319 324 329 332 331 331 334 333 332 335 334 340 347
62 63 64 64 66 68 71 75 72 70 71 76 78 83 83 79 79 78 78 78 80 78 80 80 85 80 76 78 83 87 88 89 86 88 89 93 98 82 53 18 360 1 351 357 342 334 334 341 336 337 342 352 358 346 341 339 340 337 328 325 328 333 333 334 332 326 325 326 317 320 325 327 332 338 343 344 342 339 339 337 339 339 341 342 347